EUTELSAT 5 WEST B

Last updated on Fri Dec 19 2025 00:02:53 GMT+0000 (Coordinated Universal Time)

1 44624U 19067A 25352.33891874 -.00000017 00000+0 00000+0 0 9990 2 44624 0.0696 331.0645 0003004 296.4437 296.7151 1.00271263 22622
UTC large
Height (km)
Speed (km/s)
/
Latitude / Longitude
Inclination (degrees)
Orbital Period (minutes)
Azimuth
Elevation
Range (km)
Doppler Factor

Next 0 passes for location: London (51.5072 / 0.1276)

Sorry there are no passes over London.